GFSGL_700_spd_132.txt.gz
Wind_Speed
17 17 16 15 14 11 11 10 8 6 7 10 12 12 13 12 12 15 14 13 12 12 12 12 15 15 16 16 16 14 12 9 8 8 6 3 3 3 4 9 8 7 5
18 20 18 18 18 15 13 12 11 12 9 9 10 11 12 13 12 14 13 12 11 9 10 10 11 11 12 13 12 12 9 6 7 6 5 8 4 4 6 6 7 7 8
21 23 20 20 21 18 17 16 15 13 13 12 11 10 11 12 12 12 12 11 10 10 10 10 9 8 7 6 7 8 6 5 8 7 9 6 3 0 4 6 7 8 8
28 24 21 21 19 17 17 17 17 16 15 13 14 12 12 12 12 12 11 10 11 12 12 10 9 6 6 8 7 6 5 4 5 6 6 7 7 6 7 7 6 6 9
26 24 21 25 22 20 19 18 16 16 17 17 16 15 15 14 13 12 11 13 14 14 11 9 7 5 7 6 7 7 7 6 6 7 8 8 8 9 10 9 7 7 10
40 30 27 24 19 20 20 19 18 18 18 19 17 18 18 16 16 16 14 13 11 11 9 7 8 9 9 9 9 9 9 8 8 9 10 10 11 11 11 10 9 9 9
33 38 27 29 20 17 18 20 19 19 20 20 21 22 19 18 18 17 16 13 13 13 13 11 9 10 12 11 11 11 11 10 10 11 11 12 13 12 12 13 12 12 12
14 32 36 29 22 22 22 26 25 24 25 25 25 24 22 21 20 21 22 22 18 16 16 14 13 14 14 15 14 12 12 12 12 13 13 15 15 16 16 16 15 14 14
10 12 13 11 19 20 20 23 26 27 29 30 31 30 27 25 24 22 21 19 20 18 16 16 16 15 15 15 15 15 15 16 16 16 17 17 17 18 19 20 19 17 16
15 18 18 18 19 21 25 26 26 28 29 28 36 35 31 29 27 25 24 24 22 19 19 19 17 18 18 17 17 18 18 17 17 18 18 15 15 18 20 21 21 21 20
19 19 19 21 23 24 22 24 25 24 19 25 20 27 34 31 32 30 29 25 24 23 22 21 20 18 17 18 19 18 17 16 14 12 15 15 16 17 17 17 18 19 21
21 21 21 21 20 18 18 18 16 16 17 16 15 16 18 19 29 30 32 29 26 24 25 23 22 20 17 15 15 15 14 14 13 15 17 18 20 22 22 22 23 25 25
17 14 13 14 15 14 14 13 13 14 16 15 16 16 12 12 22 27 33 33 31 29 27 26 25 22 19 15 15 15 15 16 17 18 19 21 22 22 23 22 22 23 24
15 15 16 18 19 20 19 19 16 16 17 15 17 23 20 19 20 19 21 30 32 31 28 27 27 27 20 15 16 16 20 21 21 23 24 25 25 25 25 23 23 23 23
13 17 18 26 19 28 23 20 21 21 17 17 15 12 11 11 18 13 17 24 28 23 22 17 19 14 16 16 17 19 23 25 27 27 25 25 25 25 25 26 25 26 27
11 14 17 20 27 20 26 22 28 27 23 20 18 19 17 11 13 14 12 12 9 11 15 15 17 20 19 21 22 24 25 26 25 25 25 26 27 27 27 28 29 31 32
6 7 15 21 25 24 28 28 29 29 33 25 20 19 18 19 17 17 15 14 12 15 18 18 21 20 21 23 26 25 24 24 24 25 27 28 29 30 30 30 31 31 32
4 13 10 14 19 24 23 27 25 25 29 25 26 23 19 20 18 19 15 17 17 18 19 25 23 22 24 25 25 25 25 26 27 28 27 27 28 28 29 31 32 33 33
9 9 7 9 12 18 21 26 27 26 21 24 22 19 15 16 16 14 15 17 17 17 18 17 18 20 21 22 23 24 25 26 26 27 28 29 30 30 32 33 34 35 36
9 6 9 9 6 4 9 11 12 11 11 12 7 20 13 12 15 15 15 15 16 16 16 17 18 20 21 21 22 23 24 26 26 27 28 29 30 31 33 34 35 36 38
7 7 10 12 10 11 13 13 10 10 13 11 11 15 17 17 17 12 15 16 16 16 17 17 18 20 22 23 24 25 25 25 26 27 28 30 31 33 34 36 37 38 40
6 6 6 6 7 7 9 13 14 17 18 17 17 18 19 19 20 21 20 20 22 23 24 24 23 23 24 25 25 25 25 25 27 29 31 32 33 34 34 35 35 36 37
12 13 12 11 10 9 8 8 10 11 13 14 15 18 18 19 20 20 18 17 17 18 20 20 21 21 23 25 25 26 27 28 29 30 32 33 33 33 34 34 34 35 37
22 21 18 18 18 17 15 15 16 17 18 17 16 17 19 20 20 19 18 17 18 19 20 19 20 22 23 26 27 28 30 31 31 31 32 32 32 33 33 34 35 34 34
25 26 28 27 23 21 20 17 17 21 24 21 20 20 22 25 25 24 21 20 21 20 19 19 22 21 21 24 26 30 30 28 28 28 29 29 30 31 32 32 32 32 32
23 24 23 22 21 20 18 21 21 24 20 30 27 28 29 29 31 31 30 27 26 23 23 24 23 21 20 21 19 23 27 26 25 26 27 28 30 30 30 30 30 30 29

GFSGL_700_spd_135.txt.gz
Wind_Speed
14 15 14 14 14 14 13 14 11 11 11 10 13 15 16 16 17 17 18 17 17 16 16 16 18 17 17 17 15 12 11 10 9 7 7 5 3 4 6 3 4 5 5
15 16 17 17 16 16 15 15 13 14 11 12 13 14 15 15 15 17 18 17 16 15 16 16 15 17 17 17 16 14 13 10 10 9 6 8 7 5 7 5 6 6 5
20 18 17 19 19 18 18 17 16 15 15 14 12 13 14 15 15 16 16 16 17 15 14 15 14 14 15 15 13 11 10 9 9 9 9 10 8 5 6 12 9 11 8
23 20 19 19 21 20 19 20 18 16 16 16 15 14 13 13 14 15 15 14 17 16 15 14 12 10 10 11 8 7 7 7 9 9 10 10 9 10 10 9 11 12 11
29 28 28 24 22 21 22 20 19 19 19 17 18 17 18 17 16 14 16 16 15 14 13 12 11 11 10 10 11 9 9 9 11 12 11 12 12 12 11 8 8 10 12
27 23 30 27 25 22 21 23 20 20 18 21 21 19 20 19 17 17 18 17 17 16 16 13 10 11 12 11 12 11 11 12 12 13 13 13 13 13 13 11 10 12 11
29 31 25 26 27 25 27 26 22 20 20 22 22 22 22 20 20 22 21 19 19 18 15 15 13 12 13 14 14 13 13 12 13 14 15 16 15 15 14 15 15 15 14
25 30 31 36 32 29 27 28 26 24 24 25 25 25 25 23 22 23 23 23 21 20 20 19 15 16 17 16 16 17 17 17 17 16 16 16 16 18 18 19 18 18 19
25 21 22 29 33 32 33 34 26 25 19 21 26 27 29 28 25 24 23 25 24 23 22 20 19 17 18 18 18 19 19 17 16 17 17 17 18 19 21 21 19 19 21
11 8 9 15 5 18 21 20 18 15 13 18 25 27 27 33 34 30 27 25 23 21 20 18 18 19 20 20 21 20 19 19 18 18 17 18 15 14 14 14 15 17 19
11 11 14 16 16 18 20 22 23 24 26 29 29 25 29 28 29 25 37 35 27 26 23 20 21 21 22 23 23 22 21 21 19 18 16 15 15 16 17 18 19 20 20
16 17 15 15 17 19 21 22 23 23 22 21 23 22 16 15 22 26 30 40 35 32 31 35 28 24 23 23 22 20 18 17 16 16 16 17 18 20 23 24 23 24 24
17 16 15 14 15 15 14 12 14 13 14 15 15 14 14 15 14 11 23 23 27 32 33 30 28 24 21 24 22 20 18 18 17 18 19 20 21 23 25 27 28 27 28
15 15 14 14 12 13 14 15 17 16 16 16 20 23 20 18 19 15 13 16 21 25 32 32 29 27 26 28 26 22 20 19 21 21 20 21 24 26 27 26 26 27 29
16 13 14 17 17 16 18 18 20 18 17 19 19 19 17 15 16 16 17 21 21 21 22 28 28 28 22 28 27 21 19 17 21 22 22 24 25 26 27 27 28 28 28
14 14 14 16 16 19 18 18 19 19 21 22 21 20 18 16 12 9 16 20 22 26 27 29 18 15 21 17 16 13 13 17 24 22 24 25 26 26 27 28 30 31 31
17 16 18 21 17 21 16 23 19 22 24 25 24 22 21 22 19 15 15 18 17 13 15 16 15 15 15 16 18 19 20 21 22 23 25 26 26 27 28 30 31 31 33
11 15 15 13 15 15 14 19 21 23 25 27 24 23 25 26 20 18 22 21 17 13 14 16 17 17 17 17 21 20 20 20 22 24 26 27 27 27 28 29 30 32 32
6 9 12 14 16 14 12 13 14 15 16 20 23 24 28 22 20 17 16 16 17 13 12 16 17 18 19 21 25 22 22 23 24 25 26 27 28 29 30 31 31 32 33
7 8 8 8 7 5 6 7 10 10 10 14 22 30 30 24 25 29 20 11 12 17 21 16 18 19 20 22 22 22 22 23 25 26 27 27 28 29 29 30 32 33 34
10 10 9 10 11 13 15 14 11 8 8 10 9 7 8 11 17 14 11 14 16 17 18 19 23 22 20 21 22 23 24 25 26 26 26 27 28 29 30 32 33 34 35
12 11 10 11 11 12 14 13 13 13 14 14 14 13 12 12 12 14 16 16 19 24 28 32 32 29 31 30 29 26 26 25 25 26 27 28 29 31 32 33 33 34 34
17 15 14 13 13 12 11 11 11 10 11 12 12 11 11 13 12 11 11 12 15 18 20 19 19 21 22 24 26 26 25 25 26 27 29 30 31 31 32 32 32 32 33
22 22 21 19 18 17 16 16 15 15 15 15 16 17 18 18 17 16 13 13 14 16 17 17 19 20 21 22 24 26 27 27 27 28 29 29 29 30 30 31 31 32 32
27 27 29 29 29 26 23 23 22 26 23 22 22 23 23 23 22 21 20 20 22 21 20 19 19 19 19 20 20 23 26 27 26 26 27 28 29 29 29 29 29 29 29
26 27 29 24 23 28 33 29 28 22 22 24 24 24 25 28 30 29 29 29 26 26 27 25 21 18 20 21 20 22 24 25 23 24 25 26 27 27 27 28 27 27 27

GFSGL_700_spd_138.txt.gz
Wind_Speed
12 12 11 12 13 14 12 12 12 12 12 11 12 14 14 15 17 17 18 18 17 16 16 16 16 16 17 16 17 15 14 13 12 8 3 3 5 5 7 6 8 8 8
12 12 12 13 14 15 14 14 14 13 13 13 13 12 15 16 16 16 17 17 17 16 16 16 16 15 15 16 16 15 13 12 12 11 6 6 8 6 7 7 7 9 6
16 15 14 15 16 16 16 16 14 13 13 15 13 12 14 14 16 17 19 19 17 18 17 17 16 16 17 14 14 13 11 9 10 10 8 8 9 6 5 9 11 10 8
21 20 19 18 17 18 19 20 18 16 15 15 16 16 16 16 15 16 17 17 17 19 18 16 15 14 13 12 11 12 11 9 9 9 8 10 11 10 9 11 12 12 13
29 25 25 23 21 18 18 20 21 19 18 17 17 18 17 17 17 15 16 17 18 18 15 16 15 13 12 11 10 11 12 10 10 10 11 12 12 12 11 12 12 12 14
27 30 30 30 26 21 22 20 20 21 21 21 20 20 19 20 20 18 18 18 19 18 16 17 16 15 13 12 12 12 13 12 13 13 13 14 13 13 13 12 11 12 14
32 30 26 32 30 27 26 21 22 21 22 22 22 22 23 23 21 20 21 22 21 19 18 19 17 16 15 15 13 14 15 15 16 16 15 14 15 14 14 15 15 16 15
31 31 30 31 29 25 36 32 25 25 24 24 25 26 25 24 24 22 21 24 26 25 23 23 23 20 17 16 18 17 15 18 18 19 19 17 17 17 17 18 19 20 19
34 29 30 25 29 23 30 30 28 28 26 29 26 26 30 29 26 24 25 24 24 26 25 23 26 25 21 19 19 19 19 19 19 20 19 19 20 20 19 20 21 22 22
25 21 22 10 13 9 11 36 32 32 33 33 26 27 21 22 26 34 34 33 27 28 29 19 19 23 17 20 20 21 22 22 22 22 22 21 21 21 19 17 16 16 17
6 10 16 10 11 11 10 10 39 31 20 40 40 29 19 26 28 28 31 36 35 34 27 22 22 19 17 19 21 23 24 25 25 25 25 24 22 19 17 17 17 18 19
10 11 13 15 18 20 18 17 20 23 23 24 27 30 27 22 23 21 21 22 29 36 41 41 37 30 24 23 26 26 27 26 25 24 24 22 20 19 19 19 19 21 23
13 12 15 15 15 17 17 17 15 13 12 11 15 16 20 19 15 18 17 21 20 29 33 36 39 35 37 35 30 28 27 26 25 23 22 21 22 22 22 23 24 25 26
14 15 15 15 13 12 12 12 10 9 11 13 14 15 19 16 18 18 19 15 15 16 21 23 22 27 30 30 29 31 28 28 25 24 24 23 22 22 23 25 27 28 28
16 16 17 16 14 15 15 15 14 15 15 14 14 16 19 19 17 18 19 19 19 22 25 23 31 37 40 36 34 34 30 28 24 22 21 22 21 23 25 25 25 27 28
13 14 15 13 12 15 16 14 16 15 17 16 17 17 16 16 17 16 14 15 20 22 26 21 21 20 20 20 20 20 27 30 25 19 17 15 18 24 24 24 25 26 28
10 12 14 15 17 19 18 20 21 20 18 19 17 21 24 19 21 19 18 20 20 20 25 24 19 20 17 14 15 17 19 19 22 18 18 19 20 23 24 25 26 28 29
10 12 12 11 12 11 15 16 17 22 17 18 18 17 24 21 25 18 22 22 18 14 13 15 17 16 13 11 13 13 13 14 16 19 20 22 23 24 24 26 26 27 26
10 11 12 12 13 14 13 12 11 11 13 10 13 13 16 15 20 23 19 20 20 22 16 18 15 14 14 13 15 18 18 17 19 20 21 21 21 22 24 25 26 28 29
10 11 12 11 10 8 6 5 6 7 8 8 9 11 14 16 16 16 19 24 31 36 17 13 12 12 14 17 21 19 18 17 19 20 21 23 24 24 26 27 28 29 30
12 12 12 12 12 12 11 11 10 10 9 9 9 8 7 6 6 6 7 7 8 8 9 11 14 15 20 23 21 21 18 17 22 24 24 25 27 28 28 28 29 31 32
12 12 13 14 14 13 12 12 12 12 12 12 12 12 12 11 10 9 9 10 10 11 12 14 18 20 21 24 28 31 28 30 35 35 33 30 28 28 29 30 31 32 32
16 17 16 16 15 14 12 11 9 9 9 9 10 9 8 8 9 10 10 12 12 12 13 14 15 15 16 18 19 21 22 22 23 24 24 25 26 27 28 28 29 30 30
22 20 21 20 20 19 18 15 13 12 13 13 13 13 14 13 13 13 14 13 14 14 13 14 15 16 17 18 18 19 20 20 21 21 21 22 23 24 26 27 27 28 29
23 23 23 24 24 24 27 24 21 19 21 21 21 19 20 19 19 19 18 18 18 18 19 19 19 20 22 23 21 21 20 19 20 21 22 23 23 24 25 26 26 27 26
26 29 28 27 25 29 29 32 22 25 30 28 21 21 22 21 21 18 20 24 23 19 19 21 21 21 20 17 17 18 19 20 21 22 22 22 23 22 23 24 24 24 25

GFSGL_700_spd_141.txt.gz
Wind_Speed
10 13 13 14 14 14 14 14 13 13 13 12 12 13 16 18 16 15 15 16 16 15 15 14 16 16 18 17 16 15 13 12 12 10 7 7 5 6 7 6 7 9 8
9 11 12 12 13 14 13 13 14 14 13 12 13 12 10 15 15 15 15 17 16 17 15 14 14 15 16 14 14 12 10 11 11 9 6 7 6 6 4 7 9 12 9
15 13 11 11 12 13 14 16 16 15 16 15 13 12 12 12 13 14 14 17 17 16 15 14 14 12 13 14 13 11 7 7 7 7 6 7 8 7 7 8 11 11 11
19 21 17 17 16 17 19 19 19 17 17 16 15 16 16 14 14 14 16 16 16 18 18 17 16 15 14 13 11 10 10 7 6 6 7 7 8 9 10 12 12 13 12
23 24 22 20 22 21 20 20 21 20 19 18 18 18 19 18 17 17 16 15 16 16 17 17 18 17 16 11 10 11 11 10 11 9 10 10 9 8 10 12 13 13 14
26 26 31 28 25 23 24 20 20 22 21 20 20 21 20 19 20 20 19 18 17 18 18 18 18 17 16 13 14 12 13 13 12 11 12 12 11 11 11 12 13 13 16
30 28 27 27 29 27 27 25 22 24 22 20 20 20 22 23 24 22 25 25 22 21 20 19 20 20 20 19 18 17 16 15 15 15 14 14 13 14 14 15 16 17 18
35 33 33 30 33 34 33 37 29 24 23 23 22 21 22 23 22 24 25 26 23 25 25 25 22 21 21 21 21 19 16 16 17 17 15 16 17 17 17 17 17 18 18
32 33 34 33 34 31 31 34 34 35 30 27 27 24 23 21 18 23 27 26 24 23 23 28 27 27 29 29 26 22 19 18 18 18 17 18 19 19 19 19 19 20 19
14 15 25 30 24 27 24 29 32 30 27 26 27 28 25 18 17 21 23 26 29 31 30 25 29 26 19 29 27 24 21 20 19 19 21 21 22 21 20 20 19 17 16
12 9 13 10 10 6 12 6 12 31 35 33 34 38 42 34 33 32 31 29 30 37 30 29 38 28 19 20 19 21 20 20 22 23 24 25 24 24 22 21 19 19 19
6 6 10 16 11 12 11 11 14 13 22 29 32 27 22 32 42 33 33 34 29 31 33 31 35 34 34 34 30 29 24 23 25 27 28 27 25 24 23 22 22 21 21
11 12 14 12 14 17 16 18 15 16 19 23 27 27 24 27 34 35 35 28 21 22 23 29 30 31 32 39 41 36 34 35 34 28 27 28 27 25 25 24 23 22 22
12 11 10 11 12 11 13 15 16 17 16 18 18 18 17 14 15 19 15 16 17 16 17 19 20 21 25 28 32 36 38 36 32 32 30 29 28 28 26 25 24 24 25
13 14 16 16 14 14 14 14 16 17 17 17 15 16 15 17 20 21 20 20 20 23 22 22 25 25 25 28 34 38 41 42 36 33 33 28 29 27 24 22 22 23 25
12 12 12 13 11 14 16 17 19 18 18 18 20 18 17 18 19 18 18 17 19 19 21 19 21 20 21 22 23 24 27 28 28 33 35 34 26 21 19 15 14 19 24
7 8 9 10 12 16 18 18 17 17 16 14 19 19 18 18 18 19 22 22 21 21 22 23 23 22 20 18 17 16 16 13 14 12 16 20 21 28 39 34 27 23 28
7 8 8 9 10 12 13 14 15 18 21 21 21 23 25 21 18 18 19 24 23 22 22 23 23 18 14 17 15 11 9 8 12 17 15 14 16 15 16 21 23 24 26
9 9 9 9 10 11 12 13 14 14 15 16 16 16 13 13 15 16 15 18 18 22 21 21 21 18 13 10 9 9 10 12 12 13 14 15 19 20 20 21 21 22 22
11 10 10 9 9 9 8 7 7 8 8 9 10 11 12 12 13 14 15 15 16 16 19 22 24 24 29 26 22 18 19 19 15 13 9 11 15 16 19 22 24 26 26
16 15 13 12 11 11 11 10 10 10 10 10 8 7 7 7 7 7 8 7 7 6 6 4 7 5 7 13 16 17 20 20 23 26 28 28 29 32 33 36 32 29 29
15 14 14 14 14 13 12 11 10 10 10 10 10 11 12 11 11 10 9 9 9 8 9 10 11 13 15 15 17 18 18 18 20 21 19 20 23 23 24 25 26 25 25
19 19 18 17 17 17 15 13 11 11 10 11 10 9 9 8 8 9 10 10 10 10 11 11 11 11 12 13 14 15 15 16 16 16 17 18 19 20 21 21 23 24 24
22 22 22 22 21 20 19 18 17 16 16 15 14 13 12 12 12 12 13 14 14 14 13 13 12 12 13 14 15 16 17 17 15 15 15 16 18 19 20 21 21 22 23
24 24 24 22 22 22 22 22 21 22 25 24 20 19 19 18 17 16 16 17 18 19 18 18 17 15 15 15 16 17 17 17 17 18 18 17 17 18 18 19 20 22 23
21 23 24 26 27 26 26 26 26 28 24 20 22 21 29 27 20 17 17 17 19 21 23 21 18 18 18 17 17 19 21 20 17 16 17 17 18 18 18 18 18 20 23

GFSGL_700_spd_144.txt.gz
Wind_Speed
12 15 14 13 15 16 16 15 14 13 12 11 9 10 12 14 14 12 13 13 12 14 14 15 13 12 13 14 14 13 13 12 9 11 9 7 5 6 7 5 8 13 8
10 12 14 14 15 15 15 15 15 14 13 12 11 11 12 11 13 13 13 13 13 13 14 13 12 12 11 11 10 10 11 11 10 8 7 8 6 7 5 3 5 9 9
15 12 12 13 13 13 14 16 16 15 13 13 12 12 12 11 11 12 13 14 14 13 12 12 12 12 11 11 10 9 7 7 7 9 6 8 7 7 8 8 10 10 10
19 18 16 14 13 13 14 16 17 16 15 15 15 14 14 14 12 12 13 14 14 13 13 14 15 15 14 13 11 10 9 8 8 7 6 6 7 9 8 9 9 9 8
24 22 22 22 21 19 18 18 19 19 19 19 18 17 17 16 16 16 15 14 14 14 14 15 16 17 15 15 13 11 11 11 10 9 8 8 8 9 10 10 11 11 10
26 21 21 25 24 21 22 20 21 21 22 22 20 20 19 18 17 17 18 17 17 16 17 18 17 18 17 17 17 15 15 14 12 11 10 10 11 12 13 11 12 12 16
26 28 28 28 28 31 29 25 23 23 23 23 24 23 21 20 21 20 20 19 20 20 20 21 22 21 19 20 18 19 19 15 15 14 14 14 14 14 14 14 14 14 17
30 30 30 30 28 28 30 29 27 27 27 26 26 25 23 19 20 19 18 20 21 21 22 25 29 27 25 24 22 19 21 19 19 17 16 17 17 17 15 15 15 17 19
25 29 31 33 34 32 31 37 37 37 37 33 28 28 26 20 23 18 13 17 19 21 22 21 21 22 22 27 30 30 25 22 23 21 17 18 18 18 17 17 17 17 18
18 22 23 26 31 32 28 29 24 23 36 37 34 34 34 28 25 22 21 13 15 21 25 28 26 28 27 24 25 29 30 27 26 21 19 19 20 19 20 20 20 21 22
13 17 19 12 9 10 13 12 20 18 20 27 26 29 30 28 27 28 28 30 31 27 27 28 32 30 25 24 25 19 23 25 26 21 22 22 22 22 23 23 23 23 23
5 7 8 8 8 10 11 9 11 12 14 18 25 27 32 31 31 32 31 29 37 34 31 29 30 24 25 25 28 27 30 27 27 26 26 24 24 25 25 26 26 26 26
10 9 9 10 11 9 11 16 18 18 17 15 13 16 20 22 27 30 26 22 29 29 35 32 19 21 19 23 29 29 31 32 33 34 34 33 32 32 29 28 28 28 28
12 12 11 10 9 14 16 14 14 15 15 16 18 19 19 19 19 19 21 23 22 23 21 20 16 19 22 24 27 26 27 29 32 36 38 40 40 34 32 31 29 29 28
11 11 12 13 14 13 12 12 11 11 12 13 13 14 16 17 18 19 18 18 20 21 23 23 24 24 23 23 22 23 23 25 29 33 37 40 38 33 31 29 29 28 28
10 11 12 12 11 11 12 15 14 15 16 18 20 20 20 20 19 19 18 18 18 20 19 20 20 20 22 22 19 22 23 23 24 27 30 32 34 32 27 31 33 34 30
7 8 8 9 8 8 11 14 16 16 16 16 17 16 16 20 21 21 20 21 21 22 21 20 22 21 22 23 21 18 17 19 16 18 18 19 23 27 17 13 12 14 18
6 6 7 7 8 9 11 12 12 14 15 16 18 20 19 19 21 20 19 22 24 22 20 20 22 21 19 15 16 17 15 15 16 16 16 15 12 11 12 14 16 17 19
7 8 9 10 10 11 11 12 12 12 13 14 15 16 16 16 16 17 17 17 18 16 16 18 20 20 22 23 19 18 17 16 14 11 11 12 15 14 14 14 15 14 14
7 7 8 9 9 9 11 12 13 13 12 11 10 10 9 9 9 7 6 6 7 9 10 10 11 11 11 11 12 9 11 14 15 15 17 16 16 17 20 22 25 27 27
11 11 10 9 9 8 8 8 10 11 13 13 13 12 11 10 9 9 9 8 7 6 6 6 7 8 8 8 8 9 11 13 13 19 21 18 13 15 17 17 19 21 25
16 17 15 13 11 10 10 11 11 10 10 10 11 11 12 12 12 12 11 10 10 9 9 9 10 10 10 11 12 13 15 15 15 15 17 18 19 20 21 23 24 25 25
17 17 18 18 19 19 18 16 15 13 11 10 10 11 11 11 10 10 10 10 10 11 10 11 11 11 12 12 13 14 15 16 16 17 17 18 18 18 19 19 20 21 21
18 18 20 22 22 21 21 20 19 18 16 16 15 15 15 13 12 13 13 14 14 14 14 14 14 15 14 14 13 14 14 16 17 18 19 19 19 20 21 20 19 19 19
21 20 19 20 24 23 23 22 22 21 20 21 21 22 21 23 19 17 17 18 18 16 17 17 16 16 16 15 15 16 15 14 15 17 19 20 20 19 19 18 18 18 17
21 19 18 20 20 22 26 25 24 25 26 26 27 26 26 21 22 21 22 18 17 18 19 22 21 19 19 19 17 16 16 17 18 17 19 22 24 22 19 17 16 15 17

GFSGL_700_spd_147.txt.gz
Wind_Speed
15 15 15 15 16 15 14 14 12 11 11 10 9 9 8 10 9 10 10 11 13 11 12 13 12 12 11 8 8 8 7 10 9 11 7 16 9 8 9 4 10 9 8
12 13 14 13 13 14 15 14 13 13 13 13 12 11 10 10 9 12 9 11 12 12 12 12 12 11 9 8 9 11 7 14 11 6 8 13 10 8 5 2 6 12 9
12 11 13 14 13 13 14 14 14 13 12 13 13 12 12 12 11 10 11 13 12 11 14 13 11 11 11 12 9 9 9 2 12 3 10 9 13 11 9 5 6 11 6
18 17 15 14 14 15 15 15 14 14 15 14 15 15 14 14 12 11 12 12 13 13 12 13 15 14 14 12 14 12 11 10 7 12 6 12 12 13 12 12 11 9 15
27 28 22 20 17 15 15 14 14 16 16 17 17 16 15 15 15 14 13 13 14 13 13 12 14 15 14 13 14 15 15 13 10 10 4 9 11 11 5 6 11 13 11
37 30 25 24 22 22 21 20 19 18 19 20 19 19 19 18 15 14 15 15 14 14 15 15 14 15 16 17 16 15 16 17 16 13 13 12 13 13 15 10 12 13 13
18 23 30 24 22 21 22 21 24 23 23 25 21 23 25 20 19 21 19 19 18 18 17 17 19 20 16 16 18 19 18 19 19 19 18 17 16 17 16 14 15 15 15
20 21 25 29 31 21 23 21 24 26 29 30 29 28 27 23 24 22 20 19 20 19 20 18 18 20 20 20 22 23 24 22 22 24 22 22 20 19 18 18 15 15 18
14 19 24 26 27 26 29 30 30 30 24 31 29 28 29 24 24 22 19 18 27 22 19 20 20 19 20 22 24 24 26 29 24 29 28 26 23 21 19 18 17 17 19
20 19 21 21 22 23 27 31 28 29 29 26 28 36 29 30 27 25 27 26 24 21 15 15 17 21 25 25 27 28 28 25 29 28 31 30 28 25 21 19 20 21 22
9 12 15 17 15 15 16 16 19 19 20 20 21 27 29 33 32 28 24 24 26 30 30 28 28 25 23 27 30 29 25 26 26 31 24 27 24 23 23 21 21 22 26
7 8 7 7 12 10 9 10 8 5 6 7 14 15 20 21 23 21 24 27 30 33 35 33 36 28 26 28 26 25 23 22 24 27 21 23 24 22 24 25 25 26 27
10 9 7 7 9 10 12 12 13 10 14 18 18 11 10 9 14 15 18 24 26 21 17 18 19 21 18 18 19 20 20 21 26 26 27 28 29 31 32 33 33 36 33
10 11 10 9 9 10 11 13 15 14 13 14 13 14 14 13 12 13 15 15 14 12 13 14 16 17 17 18 20 23 25 25 21 24 27 28 26 29 30 34 35 36 33
7 8 8 9 9 10 9 11 11 10 10 10 11 11 13 13 13 14 15 16 15 17 16 17 17 17 18 19 20 20 21 22 20 21 24 25 25 27 29 30 34 35 34
9 9 9 10 11 12 10 9 11 11 13 14 16 17 17 18 18 17 17 18 18 18 17 16 16 17 18 16 16 17 18 18 19 21 22 22 23 24 25 27 30 29 28
7 7 7 7 7 8 8 10 12 14 14 13 15 16 14 15 16 19 18 17 17 18 19 19 20 20 19 18 19 19 18 17 17 16 15 15 14 16 17 18 20 20 17
4 4 5 6 7 7 8 9 10 11 12 13 14 15 16 17 17 18 18 17 19 20 20 18 17 17 17 17 17 17 16 16 15 15 15 16 16 17 17 19 19 17 18
6 5 5 6 6 7 8 10 11 11 11 12 12 12 13 15 15 15 15 14 15 15 15 15 15 16 16 15 16 15 15 15 16 17 16 15 15 15 14 13 12 14 17
5 5 5 6 6 7 8 9 10 11 11 12 13 11 11 11 11 10 10 8 8 7 8 7 5 5 6 6 5 5 5 6 9 11 12 12 12 15 19 23 25 24 21
7 7 8 8 8 8 8 8 9 10 12 13 14 13 12 12 11 11 11 10 10 10 9 9 8 7 8 8 7 8 9 10 12 13 14 14 14 16 19 21 21 22 22
9 9 10 8 9 10 10 10 11 10 9 10 13 11 12 13 14 15 13 13 12 11 10 10 11 10 10 10 10 11 12 14 13 14 15 16 16 17 18 19 19 20 22
13 9 12 15 11 13 13 14 13 11 11 11 10 18 13 12 13 15 16 16 15 13 12 12 12 12 11 12 13 14 15 15 16 16 17 17 18 18 19 20 21 22 23
14 11 11 19 16 13 14 14 14 15 14 12 12 12 13 11 11 12 17 18 20 18 17 18 17 17 16 16 15 16 17 17 17 17 17 16 16 16 18 20 20 21 21
15 14 18 18 19 15 13 15 15 16 18 17 15 14 18 18 18 19 21 23 22 21 21 19 18 16 16 17 18 17 17 18 19 18 15 14 15 16 18 20 23 20 20
13 14 15 16 20 21 21 21 19 19 20 20 23 23 21 19 21 27 27 25 26 25 22 19 19 20 22 18 16 16 16 17 15 17 18 20 20 21 23 24 21 18 17

GFSGL_700_spd_150.txt.gz
Wind_Speed
18 17 18 17 16 15 13 13 13 12 11 13 8 10 10 9 11 10 10 11 11 8 10 12 12 10 10 8 8 10 10 8 7 7 14 10 10 6 9 9 9 4 4
18 17 15 16 16 16 16 15 15 13 12 9 10 12 11 10 11 11 9 12 12 11 11 13 12 9 9 7 9 10 9 8 8 7 5 9 7 5 10 4 4 6 4
15 16 17 17 14 12 13 13 14 15 12 12 13 12 11 11 11 12 10 12 11 12 12 13 11 11 10 9 9 9 10 7 4 8 5 6 13 9 5 7 8 6 7
27 16 11 14 15 13 13 14 12 11 11 12 13 12 13 13 13 12 12 11 11 11 11 14 14 12 12 8 9 10 12 11 11 12 9 9 10 10 9 9 10 5 6
27 18 27 21 11 12 13 15 10 11 13 12 13 13 14 14 14 13 14 13 12 11 11 12 13 12 9 10 9 10 11 11 12 11 10 9 12 10 7 8 10 14 9
32 27 27 18 17 15 15 14 14 13 14 15 16 17 15 16 15 13 14 16 15 13 13 14 15 14 13 12 11 10 11 10 12 14 15 12 16 15 12 13 16 12 17
35 31 30 25 19 19 21 21 20 23 21 15 20 23 27 22 19 17 18 20 17 15 16 16 16 19 17 17 18 17 13 13 15 16 16 17 19 18 19 18 15 16 17
4 17 29 33 32 17 16 18 20 15 23 22 24 28 31 31 26 21 21 21 18 17 16 17 19 21 18 19 19 18 17 18 19 17 18 21 21 21 23 23 19 18 18
7 7 6 8 11 20 24 25 20 21 21 26 27 25 28 26 30 32 31 26 21 20 19 22 20 22 18 17 18 20 20 20 21 23 26 25 25 25 24 24 21 18 19
14 14 14 12 16 17 17 18 14 22 24 25 26 26 22 24 27 31 25 26 22 18 23 18 15 18 15 16 18 19 23 26 28 26 27 29 30 27 29 29 24 20 20
5 9 10 10 12 10 9 7 7 7 10 13 14 14 20 21 22 22 25 30 27 27 24 23 28 30 31 30 25 22 26 27 28 26 26 21 20 23 23 22 20 21 21
5 5 7 7 6 8 8 4 6 3 5 4 5 11 10 7 13 14 16 19 21 21 25 27 26 24 28 32 26 27 26 28 30 24 21 21 19 21 21 21 21 23 25
9 8 6 5 5 7 9 9 8 8 7 11 14 14 8 8 4 4 5 9 13 16 19 18 17 15 13 16 22 24 23 21 18 17 23 26 23 23 22 26 25 26 29
6 8 9 8 7 8 8 7 9 10 10 10 9 10 10 8 6 6 5 7 10 11 12 12 12 14 14 13 13 15 16 21 18 19 17 15 16 17 23 22 26 28 25
6 6 6 7 7 7 7 7 8 8 8 8 8 8 8 9 9 10 10 12 13 13 14 14 15 15 15 14 13 14 15 15 15 16 17 18 20 23 26 26 26 23 24
7 8 7 7 7 7 7 8 8 8 9 11 12 13 13 13 14 14 14 14 14 15 15 15 16 16 16 16 16 16 15 15 15 16 17 19 20 19 19 19 18 18 19
6 6 6 5 4 4 4 3 5 7 7 9 10 11 11 11 12 13 14 16 16 16 16 16 16 16 16 14 14 14 15 15 16 16 15 14 13 13 15 16 16 15 15
4 4 4 4 4 5 5 6 5 6 6 8 9 9 10 11 11 12 13 14 14 13 14 15 15 13 13 14 15 15 14 13 13 13 13 13 13 13 14 13 13 14 13
4 4 3 2 3 4 4 5 6 8 7 8 7 8 9 10 10 10 11 11 11 11 10 12 12 12 12 12 12 12 11 11 12 14 15 15 16 17 17 15 12 14 16
4 4 4 4 5 6 6 7 8 8 10 10 8 8 10 11 11 11 10 11 11 10 9 9 9 7 8 7 8 6 7 6 7 8 10 10 11 14 14 14 12 18 19
6 5 5 7 7 8 8 7 8 9 11 11 13 11 11 13 14 14 13 10 13 14 13 12 10 9 10 10 10 9 11 8 11 11 10 11 12 12 14 15 17 17 17
3 8 9 8 9 10 10 10 9 8 7 9 16 12 11 12 14 16 14 14 13 12 11 12 12 12 13 12 12 12 12 11 12 12 13 13 14 14 15 15 15 16 16
8 8 11 17 16 14 13 13 13 10 9 9 12 17 17 15 13 12 14 15 18 16 13 13 14 14 13 14 13 14 15 13 14 14 14 14 13 14 14 14 15 15 16
14 11 6 15 21 19 14 14 13 11 11 15 12 14 14 13 14 13 14 18 21 21 20 17 18 19 17 17 17 16 15 15 13 15 16 16 13 12 13 14 16 17 19
15 13 13 19 24 21 24 19 17 10 13 14 14 18 23 23 24 18 18 18 22 23 25 28 26 22 17 15 20 18 17 16 16 15 14 14 15 17 19 18 18 19 19
7 10 17 24 19 19 21 18 17 20 19 21 23 23 25 23 26 24 27 27 22 23 27 28 26 18 22 20 19 15 13 14 15 18 20 22 21 20 21 21 18 16 15